Regional Weather Roundup
Issued by NWS

Home | Current Version | Previous Version | Text Only | Print | Product List | Glossary On
Versions: 1 2 3 4 5 6 7 8 9 10 11 12 13 14 15 16 17 18 19 20 21 22 23 24 25 26 27 28 29 30 31 32 33 34 35 36 37 38 39 40 41 42 43 44 45 46 47 48 49 50
000
ASUS43 KLSX 301110
RWRMO

WEATHER SUMMARY FOR MISSOURI
NATIONAL WEATHER SERVICE SPRINGFIELD MO
600 AM CDT THU MAR 30 2017

NOTE: "FAIR" INDICATES FEW OR NO CLOUDS BELOW 12,000 FEET WITH NO
       SIGNIFICANT WEATHER AND/OR OBSTRUCTIONS TO VISIBILITY.
       CURRENT SKY AND/OR WEATHER CONDITIONS ARE NOT AVAILABLE FOR
       CHILLICOTHE AND FARMINGTON.

MOZ001>031-035>038-043-044-053-054-301200-
...NORTHERN AND WESTERN MISSOURI...

CITY           SKY/WX    TMP DP  RH WIND       PRES   REMARKS
KANSAS CTY INT CLOUDY    49  47  93 S8        29.55S
KANSAS C DTWN  CLOUDY    50  45  83 S8        29.56R
LEE`S SUMMIT   CLOUDY    48  45  89 S3        29.56F
ST JOSEPH      CLOUDY    50  49  96 E12       29.56S
CHILLICOTHE      N/A     48  46  93 E6        29.58F
KIRKSVILLE     CLOUDY    48  32  53 NE14      29.59F HAZE

$$
MOZ066>068-077>081-088>096-101>105-301200-
...SOUTHWEST MISSOURI...

CITY           SKY/WX    TMP DP  RH WIND       PRES   REMARKS
SPRINGFIELD    PTCLDY    47  43  86 SW9       29.60S
JOPLIN         CLOUDY    47  42  83 S20       29.61S
BRANSON        CLOUDY    50  43  76 SW10G16   29.64R

$$
MOZ032>034-039>042-045>050-055>058-069>072-301200-
...CENTRAL MISSOURI...

CITY           SKY/WX    TMP DP  RH WIND       PRES   REMARKS
COLUMBIA       CLOUDY    58  58 100 S3        29.57R FOG
JEFFERSON CITY CLOUDY    62  58  86 E3        29.57S
ROLLA          CLOUDY    58  57  97 SE7       29.57F
SEDALIA        MOCLDY    52  48  86 SW12      29.58S
WHITEMAN AFB   CLEAR     47  47 100 SW15      29.57R
WARRENSBURG    PTCLDY    46  45  93 S6        29.58S
OSAGE BEACH    CLEAR     55  55 100 S5        29.57F

$$
MOZ051-052-059>065-301200-
...EAST CENTRAL MISSOURI...

CITY           SKY/WX    TMP DP  RH WIND       PRES   REMARKS
ST LOUIS INTL  CLOUDY    61  57  87 CALM      29.61R
SPIRIT OF STL  LGT RAIN  61  59  93 S6        29.59S
ST CHARLES     CLOUDY    56  56 100 E6        29.59F FOG

$$
MOZ072>076-082>087-097>100-106>115-301200-
...SOUTH CENTRAL AND SOUTHEAST MISSOURI...

CITY           SKY/WX    TMP DP  RH WIND       PRES   REMARKS
CAPE GIRARDEAU LGT RAIN  63  57  81 S17G26    29.67R
FARMINGTON     MOCLDY    59  58  96 S6        29.62F
POPLAR BLUFF   CLOUDY    66  59  78 S15G25    29.62F
WEST PLAINS    CLOUDY    60  58  92 S7        29.61F

$$




USA.gov is the U.S. government's official web portal to all federal, state and local government web resources and services.